Погода в Белоярово

Россия / Амурская область     51°35′33″N   128°46′36″E
темп.,
°C
ветер,
м/с
пор.,
м/с
влажн.,
%
обл.,
%
осадки,
мм/ч
давл.,
гПа
погр.,
м
18 мая, вт
вт1800:00+11ссз4761100 0.9 999173
03:00+8св5986100 2.7 998284
06:00+8всв3486100 0.1 999266
09:00+12юз236885 0.1 999676
12:00+15зсз565699 0.1 9991643
15:00+15сз6752100 0.1 10001587
18:00+14сз3647100 0.0 10001082
21:00+9с4948100 0.0 1003178
19 мая, ср
ср1900:00+7св2342100 0.0 100432
03:00+5ссв464990 0.0 1004103
06:00+6ссв4956100 0.1 1007393
09:00+9ссв555192 0.1 1007773
12:00+13ссз23425 0.0 10061430
15:00+16юз11356 0.0 10051866
18:00+15юв1334100 0.0 10041192
21:00+12юв61242100 0.0 1001380
20 мая, чт
чт2000:00+11вюв4945100 0.1 999324
03:00+11юв41065100 1.1 995396
06:00+12зюз7117992 0.0 996814
09:00+12сз81065100 0.0 10021086
12:00+13ссз6851100 0.0 10041036
15:00+16ссз463696 0.0 10061621
18:00+15св3238100 0.0 1006719
21:00+11вюв3647100 0.0 100791
21 мая, пт
пт2100:00+9вюв225446 0.0 100832
03:00+8вюв225973 0.0 100830
06:00+9ссв587195 0.0 1009327
09:00+11св676087 0.0 1010696
12:00+14ссв5556100 0.0 1010973
15:00+12ссв4565100 0.0 1009570
18:00+12св4106620 0.1 1009615
21:00+9св6125767 0.1 1009403
22 мая, сб
сб2200:00+6ссв4107760 0.0 1009268
03:00+6св4108064 0.1 1007266
06:00+8св4969100 0.1 1007325
09:00+14всв454899 0.1 1004496
12:00+21вюв454013 0.0 10011192
15:00+25ю694028 0.0 9981516
18:00+26ююв61144100 0.0 994736
21:00+22ююв81749100 0.8 994428